User: anonymous   Login
Location: Unspecified
(0.0000°N, 0.0000°E)
Time: 02:22:59
(UTC+00:00)
Language:

KANOPUS-V 3 - Orbit

View from above orbital plane
View from above orbital plane
View from above satellite
View from above satellite

Ground track
Ground track

The orbit data is extracted from the following two-line orbital elements,

1 43180U 18014A   18324.77386190  .00000173  00000-0  11511-4 0  9993
2 43180  97.4485 230.8481 0001812  90.3290 334.7379 15.18922416 44425
Epoch (UTC): 20 November 2018 18:34:21
Eccentricity: 0.0001812
inclination: 97.4485°
perigee height: 508 km
apogee height: 510 km
right ascension of ascending node: 230.8481°
argument of perigee: 90.3290°
revolutions per day: 15.18922416
mean anomaly at epoch: 334.7379°
orbit number at epoch: 4442

The dashed part of the orbit path shows where the satellite is in the earth's shadow,  

DLR